Jacksonville, TX

4:10 AM CDT on June 23, 2017 (GMT -0500)
Cherokee County

Weather History for KJSO - August, 2013

Change the Weather History Date:

Wednesday, August 7, 2013

  Actual Average (KOCH) Record (KOCH)
Temperature  
Mean Temperature 86 °F -  
Max Temperature 98 °F 91 °F 104 °F (2011)
Min Temperature 74 °F 69 °F 66 °F (1997)
Cooling Degree Days 21    
Growing Degree Days 36 (Base 50)    
Moisture  
Dew Point 68 °F    
Average Humidity 57    
Maximum Humidity 90    
Minimum Humidity 28    
Precipitation  
Precipitation 0.00 in - - ()
Sea Level Pressure  
Sea Level Pressure 29.92 in    
Wind  
Wind Speed 8 mph (South)    
Max Wind Speed 13 mph    
Max Gust Speed 20 mph    
Visibility 9 miles    
Events      
Averages and records for this station are not official NWS values.
T = Trace of Precipitation, MM = Missing Value Source: NWS Daily Summary

Daily Weather History Graph

Daily Weather History Graph

Search for Another Location

Airport or City:

Trip Planner

Search our weather history database for the weather conditions in past years. The results will help you decide how hot, cold, wet, or windy it might be!

Date:

Astronomy

Aug. 07, 2013 Rise Set
Actual Time 6:40 AM CDT 8:12 PM CDT
Civil Twilight 6:14 AM CDT 8:38 PM CDT
Nautical Twilight 5:43 AM CDT 9:09 PM CDT
Astronomical Twilight 5:10 AM CDT 9:42 PM CDT
Moon 7:23 AM CDT (8/7) 8:28 PM CDT (8/7)
Length of Visible Light 14h 23m
Length of Day
13h 31m
New Moon, 1% of the Moon is Illuminated
Aug 7
New Moon
Aug 14
First Quarter
Aug 20
Full
Aug 28
Last Quarter
Sep 5
New

Hourly Weather History & Observations

Time (CDT) Temp. Heat Index Dew Point Humidity Pressure Visibility Wind Dir Wind Speed Gust Speed Precip Events Conditions
12:15 AM 83.3 °F 88.4 °F 71.8 °F 68% 29.94 in 10.0 mi South 9.2 mph - N/A   Clear
12:35 AM 82.6 °F 87.6 °F 72.0 °F 70% 29.94 in 10.0 mi South 9.2 mph - N/A   Clear
12:55 AM 81.7 °F 86.5 °F 72.1 °F 73% 29.95 in 10.0 mi South 5.8 mph - N/A   Clear
1:15 AM 81.0 °F 85.2 °F 72.1 °F 74% 29.95 in 10.0 mi South 8.1 mph - N/A   Clear
1:35 AM 81.3 °F 85.2 °F 70.7 °F 70% 29.95 in 10.0 mi South 10.4 mph - N/A   Clear
1:55 AM 81.1 °F 84.5 °F 69.6 °F 68% 29.95 in 10.0 mi South 10.4 mph 17.3 mph N/A   Clear
2:15 AM 80.8 °F 83.8 °F 68.9 °F 67% 29.94 in 10.0 mi South 9.2 mph - N/A   Clear
2:35 AM 80.2 °F 83.0 °F 68.4 °F 67% 29.93 in 10.0 mi South 10.4 mph 16.1 mph N/A   Clear
2:55 AM 79.3 °F - 68.4 °F 69% 29.93 in 10.0 mi South 10.4 mph - N/A   Clear
3:15 AM 79.0 °F - 68.4 °F 70% 29.93 in 10.0 mi South 9.2 mph - N/A   Clear
3:35 AM 78.6 °F - 68.5 °F 71% 29.93 in 10.0 mi South 9.2 mph 19.6 mph N/A   Clear
3:55 AM 78.1 °F - 68.9 °F 73% 29.93 in 10.0 mi South 8.1 mph 16.1 mph N/A   Clear
4:15 AM 77.4 °F - 69.3 °F 76% 29.93 in 10.0 mi South 8.1 mph - N/A   Clear
4:35 AM 76.8 °F - 69.8 °F 79% 29.92 in 10.0 mi SSW 9.2 mph - N/A   Clear
4:55 AM 76.1 °F - 70.0 °F 81% 29.91 in 10.0 mi South 9.2 mph - N/A   Clear
5:15 AM 75.4 °F - 70.3 °F 84% 29.92 in 10.0 mi SSW 6.9 mph - N/A   Clear
5:35 AM 75.0 °F - 70.7 °F 86% 29.91 in 10.0 mi SSW 8.1 mph - N/A   Clear
5:55 AM 74.8 °F - 71.6 °F 90% 29.93 in 7.0 mi SW 8.1 mph - N/A   Scattered Clouds
6:15 AM 75.6 °F - 71.8 °F 88% 29.93 in 10.0 mi SSW 5.8 mph - N/A   Mostly Cloudy
6:35 AM 75.6 °F - 71.8 °F 88% 29.94 in 10.0 mi SSW 8.1 mph - N/A   Mostly Cloudy
6:55 AM 75.7 °F - 71.8 °F 87% 29.94 in 7.0 mi SSW 9.2 mph - N/A   Mostly Cloudy
7:15 AM 76.1 °F - 71.8 °F 86% 29.94 in 7.0 mi SW 6.9 mph - N/A   Mostly Cloudy
7:35 AM 76.6 °F - 71.8 °F 85% 29.94 in 7.0 mi SSW 10.4 mph - N/A   Scattered Clouds
7:55 AM 77.2 °F - 71.8 °F 83% 29.95 in 7.0 mi SSW 6.9 mph - N/A   Scattered Clouds
8:15 AM 77.9 °F - 72.0 °F 82% 29.95 in 7.0 mi SSW 9.2 mph - N/A   Mostly Cloudy
8:35 AM 78.6 °F - 71.8 °F 79% 29.95 in 7.0 mi SSW 12.7 mph 17.3 mph N/A   Mostly Cloudy
8:55 AM 79.7 °F - 71.6 °F 76% 29.96 in 7.0 mi SW 11.5 mph - N/A   Scattered Clouds
9:15 AM 80.2 °F 83.9 °F 71.2 °F 74% 29.96 in 10.0 mi SW 12.7 mph 18.4 mph N/A   Scattered Clouds
9:35 AM 81.7 °F 86.0 °F 71.6 °F 71% 29.96 in 10.0 mi South 9.2 mph - N/A   Clear
9:55 AM 82.9 °F 87.2 °F 70.7 °F 66% 29.98 in 10.0 mi SSW 10.4 mph 16.1 mph N/A   Clear
10:15 AM 84.4 °F 89.4 °F 70.9 °F 64% 29.98 in 10.0 mi SW 8.1 mph - N/A   Clear
10:35 AM 84.9 °F 89.7 °F 70.7 °F 62% 29.99 in 10.0 mi WSW 8.1 mph - N/A   Clear
10:55 AM 85.6 °F 90.4 °F 70.5 °F 60% 29.98 in 10.0 mi South 6.9 mph 16.1 mph N/A   Clear
11:15 AM 86.4 °F 91.1 °F 69.8 °F 58% 29.98 in 7.0 mi SW 6.9 mph 17.3 mph N/A   Clear
11:35 AM 87.4 °F 91.9 °F 69.3 °F 55% 29.97 in 7.0 mi SSW 5.8 mph - N/A   Clear
11:55 AM 89.4 °F 94.0 °F 69.3 °F 51% 29.97 in 10.0 mi SW 4.6 mph - N/A   Clear
12:15 PM 89.8 °F 94.2 °F 68.7 °F 50% 29.96 in 10.0 mi South 6.9 mph - N/A   Clear
12:35 PM 91.4 °F 95.4 °F 68.0 °F 46% 29.96 in 10.0 mi SSE 6.9 mph - N/A   Clear
12:55 PM 91.9 °F 95.9 °F 68.0 °F 45% 29.95 in 10.0 mi SSE 6.9 mph - N/A   Clear
1:15 PM 93.2 °F 96.7 °F 66.7 °F 42% 29.95 in 7.0 mi South 10.4 mph - N/A   Clear
1:35 PM 94.1 °F 96.4 °F 64.8 °F 38% 29.94 in 10.0 mi West 8.1 mph - N/A   Clear
1:55 PM 94.6 °F 96.8 °F 64.4 °F 37% 29.93 in 7.0 mi South 10.4 mph - N/A   Clear
2:15 PM 95.9 °F 98.0 °F 64.6 °F 35% 29.92 in 10.0 mi South 6.9 mph - N/A   Clear
2:35 PM 96.6 °F 98.2 °F 63.1 °F 33% 29.91 in 10.0 mi South 8.1 mph - N/A   Clear
2:55 PM 97.3 °F 98.9 °F 63.3 °F 32% 29.91 in 10.0 mi SSE 11.5 mph 18.4 mph N/A   Clear
3:15 PM 97.3 °F 98.4 °F 62.4 °F 31% 29.91 in 10.0 mi WSW 5.8 mph - N/A   Clear
3:35 PM 97.7 °F 99.5 °F 62.8 °F 32% 29.90 in 10.0 mi SSE 4.6 mph - N/A   Clear
3:55 PM 98.4 °F 100.2 °F 63.0 °F 31% 29.89 in 10.0 mi South 8.1 mph - N/A   Clear
4:15 PM 98.6 °F 101.0 °F 63.7 °F 32% 29.89 in 10.0 mi ESE 4.6 mph - N/A   Clear
4:35 PM 98.8 °F 99.7 °F 61.7 °F 29% 29.88 in 10.0 mi SW 4.6 mph - N/A   Clear
4:55 PM 98.8 °F 99.7 °F 61.3 °F 29% 29.88 in 10.0 mi South 4.6 mph - N/A   Clear
5:15 PM 98.8 °F 100.3 °F 62.1 °F 30% 29.87 in 7.0 mi SSE 3.5 mph - N/A   Clear
5:35 PM 98.6 °F 98.9 °F 60.6 °F 28% 29.87 in 10.0 mi Calm Calm - N/A   Clear
5:55 PM 98.4 °F 99.7 °F 61.7 °F 30% 29.86 in 10.0 mi ESE 3.5 mph - N/A   Clear
6:15 PM 97.7 °F 99.0 °F 62.4 °F 31% 29.86 in 10.0 mi SSE 5.8 mph - N/A   Clear
6:35 PM 97.2 °F 98.6 °F 62.4 °F 32% 29.85 in 10.0 mi SSE 5.8 mph - N/A   Clear
6:55 PM 96.3 °F 97.6 °F 62.4 °F 33% 29.85 in 10.0 mi SE 4.6 mph - N/A   Clear
7:15 PM 94.8 °F 97.6 °F 65.8 °F 38% 29.85 in 10.0 mi ESE 4.6 mph - N/A   Clear
7:35 PM 93.4 °F 96.6 °F 66.7 °F 41% 29.85 in 10.0 mi ESE 5.8 mph - N/A   Clear
7:55 PM 91.8 °F 95.1 °F 66.7 °F 44% 29.85 in 10.0 mi SE 3.5 mph - N/A   Clear
8:15 PM 90.5 °F 93.3 °F 66.6 °F 45% 29.86 in 10.0 mi SE 3.5 mph - N/A   Clear
8:35 PM 89.6 °F 92.2 °F 66.6 °F 46% 29.86 in 10.0 mi SE 4.6 mph - N/A   Clear
8:55 PM 88.7 °F 91.5 °F 66.6 °F 48% 29.86 in 10.0 mi SE 3.5 mph - N/A   Clear
9:15 PM 88.3 °F 90.5 °F 65.7 °F 47% 29.87 in 10.0 mi SSE 5.8 mph - N/A   Clear
9:35 PM 88.3 °F 89.5 °F 64.0 °F 44% 29.88 in 10.0 mi SSE 5.8 mph - N/A   Clear
9:55 PM 88.7 °F 89.1 °F 62.2 °F 41% 29.88 in 10.0 mi SSE 9.2 mph - N/A   Clear
10:15 PM 88.3 °F 88.4 °F 61.3 °F 40% 29.89 in 10.0 mi SSE 6.9 mph - N/A   Clear
10:35 PM 88.5 °F 88.3 °F 60.8 °F 39% 29.90 in 10.0 mi South 9.2 mph - N/A   Clear
10:55 PM 86.7 °F 87.5 °F 63.1 °F 45% 29.90 in 10.0 mi South 9.2 mph - N/A   Clear
11:15 PM 84.6 °F 87.1 °F 66.6 °F 55% 29.91 in 7.0 mi South 9.2 mph - N/A   Clear
11:35 PM 84.0 °F 87.6 °F 68.9 °F 60% 29.91 in 7.0 mi South 9.2 mph - N/A   Clear
11:55 PM 83.1 °F 87.1 °F 70.0 °F 64% 29.91 in 7.0 mi South 11.5 mph - N/A   Clear